Location: Newcastle Observatory
(43.9158°N, 78.5831°W)
Time: 05:22:20
(UTC-05:00)

Amateur Radio Satellites - All Passes

Search period start: 05 March 2015 04:52
Search period end: 06 March 2015 04:52
Location: Newcastle Observatory, 43.9158°N, 78.5831°W

Satellite Date Start Highest point End Downlink Frequencies (MHz)
Time Altitude Azimuth
JAS-2 05 Mar 04:56:36 05:04:09 89° 104° (ESE) 05:12:03 435.910
HORYU 2 05 Mar 05:04:41 05:08:01 21° 295° (WNW) 05:11:15 437.375
CUBESAT XI-V 05 Mar 05:09:16 05:13:19 30° 68° (ENE) 05:17:27 437.345
AO-7 05 Mar 05:11:37 05:19:54 72° 292° (WNW) 05:28:06 29.400- 29.500
YUBILEINY 05 Mar 05:26:48 05:32:16 17° 283° (WNW) 05:37:14 435.215
RS-15 05 Mar 05:28:52 05:38:37 33° 25° (NNE) 05:48:53 29.354- 29.394
Cubesat XI-IV 05 Mar 06:14:29 06:19:39 46° 98° (E) 06:24:48 437.490
STRAND 1 05 Mar 06:17:42 06:22:51 88° 83° (E) 06:28:04 437.568
PCSat 05 Mar 06:22:12 06:26:53 30° 250° (WSW) 06:31:29 145.827
CUTE-I 05 Mar 06:22:36 06:27:52 54° 100° (E) 06:33:06 437.470
PRISM 05 Mar 06:22:50 06:26:48 43° 261° (W) 06:30:49 437.425
AIST 1 05 Mar 06:25:04 06:28:55 32° 91° (E) 06:32:52
JAS-2 05 Mar 06:42:55 06:48:27 22° 301° (WNW) 06:53:58 435.910
CUBESAT XI-V 05 Mar 06:46:33 06:50:44 31° 265° (W) 06:54:54 437.345
AO-7 05 Mar 07:06:03 07:11:26 19° 312° (NW) 07:16:31 29.400- 29.500
ISS 05 Mar 07:24:25 07:26:35 17° 135° (SE) 07:28:49 145.825
HO-68 05 Mar 07:31:40 07:34:58 14° 85° (E) 07:38:45 435.675
BRITE-PL 05 Mar 07:35:17 07:36:58 12° 86° (E) 07:38:51 437.365/2234.400
GONETS M04 05 Mar 07:40:42 07:48:18 33° 66° (ENE) 07:56:05
RS-15 05 Mar 07:41:42 07:53:09 79° 53° (NE) 08:05:09 29.354- 29.394
Cubesat XI-IV 05 Mar 07:55:06 07:59:33 26° 296° (WNW) 08:03:51 437.490
STRAND 1 05 Mar 08:00:57 08:02:54 12° 274° (W) 08:04:31 437.568
CUTE 1.7 + AOD 2 05 Mar 08:02:08 08:04:26 14° 89° (E) 08:06:54 437.475
AIST 1 05 Mar 08:03:06 08:06:40 23° 289° (WNW) 08:10:12
CUTE-I 05 Mar 08:03:27 08:07:37 23° 297° (WNW) 08:11:39 437.470
O/OREOS (USA 219) 05 Mar 08:19:23 08:23:17 29° 105° (ESE) 08:27:18 437.305
AAUSAT CUBESAT 2 05 Mar 08:34:58 08:38:02 20° 92° (E) 08:41:11 437.432
SO-50 05 Mar 08:39:10 08:43:24 28° 42° (NE) 08:47:40 436.795
COMPASS 1 05 Mar 08:39:29 08:42:58 25° 94° (E) 08:46:31 437.405
Oscar 11 05 Mar 08:48:35 08:50:43 14° 89° (E) 08:53:03 145.826/435.025
ISS 05 Mar 08:59:29 09:02:41 66° 331° (NNW) 09:05:54 145.825
GOMX 1 05 Mar 09:02:06 09:06:28 68° 101° (E) 09:10:36 467.674
BUGSAT 1 05 Mar 09:08:18 09:09:09 11° 61° (ENE) 09:10:14 437.445
SEEDS 05 Mar 09:10:33 09:14:47 68° 101° (E) 09:19:00 437.485
QB50P1 05 Mar 09:11:00 09:13:25 15° 64° (ENE) 09:15:59 145.935-145.965
CINEMA 3 05 Mar 09:11:05 09:14:45 30° 95° (E) 09:18:26 145.822/145.860
BRITE-PL 05 Mar 09:11:42 09:16:11 63° 286° (WNW) 09:20:22 437.365/2234.400
CUBEBUG 2 05 Mar 09:13:30 09:16:19 18° 91° (E) 09:19:16 437.445
QB50P2 05 Mar 09:15:31 09:18:14 17° 65° (ENE) 09:21:06 145.880/145.840
HO-68 05 Mar 09:16:46 09:24:01 79° 105° (ESE) 09:31:13 435.675
DX 1 05 Mar 09:17:59 09:19:53 13° 89° (E) 09:22:00 434.975-435.025
CANX-2 05 Mar 09:18:19 09:22:35 77° 284° (WNW) 09:26:51 2200.000
DOVE 4 05 Mar 09:23:35 09:27:52 80° 102° (ESE) 09:32:00 437.250
UNISAT 6 05 Mar 09:23:50 09:27:47 35° 70° (ENE) 09:31:43 437.425
DELFI C3 05 Mar 09:25:40 09:29:07 26° 94° (E) 09:32:37 145.870
DUCHIFAT 1 05 Mar 09:27:29 09:30:43 22° 67° (ENE) 09:34:02 145.980
CUTE 1.7 + AOD 2 05 Mar 09:36:35 09:40:45 53° 287° (WNW) 09:44:54 437.475
GONETS M04 05 Mar 09:37:10 09:45:44 60° 268° (W) 09:54:17
FUNcube-1 05 Mar 09:38:12 09:41:27 22° 93° (E) 09:44:48 145.935
ZACube-1 05 Mar 09:40:26 09:43:48 24° 94° (E) 09:47:16 437.345
UKube-1 05 Mar 09:42:44 09:46:08 23° 93° (E) 09:49:36 .
TIGRISAT 05 Mar 09:47:07 09:51:25 60° 74° (ENE) 09:55:40 435.000
POPSAT HIP 1 05 Mar 09:49:21 09:53:16 36° 70° (ENE) 09:57:13 437.405
POLYITAN 1 05 Mar 09:50:16 09:54:13 37° 70° (ENE) 09:58:12 437.675
RS-15 05 Mar 09:55:02 10:04:45 32° 254° (WSW) 10:14:24 29.354- 29.394
O/OREOS (USA 219) 05 Mar 09:58:35 10:02:41 31° 303° (WNW) 10:06:47 437.305
ANTELSAT 05 Mar 10:02:15 10:06:38 89° 79° (ENE) 10:10:58 437.575/2403.000
UWE-3 05 Mar 10:05:33 10:09:39 56° 100° (E) 10:13:46 435.000/436.395/437.385
AAUSAT CUBESAT 2 05 Mar 10:09:57 10:13:51 37° 289° (WNW) 10:17:43 437.432
NANOSAT C BR1 05 Mar 10:11:01 10:15:14 62° 74° (ENE) 10:19:29 145.865
COMPASS 1 05 Mar 10:15:00 10:18:42 29° 291° (WNW) 10:22:20 437.405
SO-50 05 Mar 10:19:25 10:24:13 50° 241° (WSW) 10:28:57 436.795
Oscar 11 05 Mar 10:23:05 10:27:21 58° 286° (WNW) 10:31:36 145.826/435.025
50 SAT 05 Mar 10:23:43 10:27:01 25° 95° (E) 10:30:23 437.505
DANDE 05 Mar 10:31:17 10:33:40 29° 75° (ENE) 10:36:03 436.750
ISS 05 Mar 10:36:52 10:39:30 22° 350° (N) 10:42:08 145.825
BUGSAT 1 05 Mar 10:39:46 10:44:03 86° 252° (WSW) 10:48:21 437.445
GOMX 1 05 Mar 10:42:09 10:44:03 12° 299° (WNW) 10:45:45 467.674
CUSAT 1 05 Mar 10:43:48 10:46:25 79° 82° (E) 10:49:08 437.405
QB50P1 05 Mar 10:44:41 10:48:55 56° 259° (W) 10:53:09 145.935-145.965
SEEDS 05 Mar 10:48:10 10:50:08 13° 297° (WNW) 10:51:56 437.485
CINEMA 3 05 Mar 10:48:30 10:51:54 24° 292° (WNW) 10:55:12 145.822/145.860
CUBEBUG 2 05 Mar 10:49:22 10:53:16 39° 289° (WNW) 10:57:09 437.445
QB50P2 05 Mar 10:49:40 10:53:50 49° 261° (W) 10:58:00 145.880/145.840
DX 1 05 Mar 10:52:18 10:56:39 63° 287° (WNW) 11:00:56 434.975-435.025
HUMSAT D 05 Mar 10:56:28 11:00:36 89° 109° (ESE) 11:04:45 437.325/437.525
DELFI C3 05 Mar 11:00:48 11:04:18 27° 291° (WNW) 11:07:44 145.870
UNISAT 6 05 Mar 11:01:12 11:04:42 22° 267° (W) 11:08:04 437.425
DUCHIFAT 1 05 Mar 11:02:24 11:06:23 37° 263° (W) 11:10:21 145.980
CUBEBUG 1 05 Mar 11:02:33 11:06:27 31° 95° (E) 11:10:22 437.445
DOVE 4 05 Mar 11:04:09 11:05:03 10° 300° (WNW) 11:05:43 437.250
HO-68 05 Mar 11:05:35 11:11:05 24° 304° (WNW) 11:16:23 435.675
AISAT 05 Mar 11:08:48 11:13:16 83° 103° (ESE) 11:17:41 437.250
FUNcube-1 05 Mar 11:14:11 11:17:54 32° 290° (WNW) 11:21:36 145.935
ZACube-1 05 Mar 11:16:35 11:20:14 30° 291° (WNW) 11:23:52 437.345
VELOX 1 05 Mar 11:16:54 11:21:23 84° 285° (WNW) 11:25:49 145.980
UKube-1 05 Mar 11:18:26 11:22:25 35° 291° (WNW) 11:26:20 .
SPROUT 05 Mar 11:24:30 11:26:38 14° 89° (E) 11:28:58 437.525
POPSAT HIP 1 05 Mar 11:25:56 11:29:18 21° 267° (W) 11:32:33 437.405
TIGRISAT 05 Mar 11:26:27 11:28:38 13° 271° (W) 11:30:36 435.000
POLYITAN 1 05 Mar 11:27:02 11:30:19 21° 268° (W) 11:33:30 437.675
GONETS M04 05 Mar 11:39:03 11:40:54 10° 287° (WNW) 11:42:01
ESTCUBE 1 05 Mar 11:43:25 11:48:01 89° 284° (WNW) 11:52:33 437.505/2401.250
UWE-3 05 Mar 11:43:30 11:45:50 14° 296° (WNW) 11:48:00 435.000/436.395/437.385
NANOSAT C BR1 05 Mar 11:49:36 11:51:36 13° 272° (W) 11:53:23 145.865
50 SAT 05 Mar 11:58:40 12:02:00 26° 291° (WNW) 12:05:17 437.505
Oscar 19 05 Mar 12:03:21 12:07:52 33° 67° (ENE) 12:12:27 437.125/150
ITAMSAT 1 05 Mar 12:10:22 12:13:06 15° 59° (ENE) 12:16:03 435.822/435.867
ISS 05 Mar 12:13:58 12:16:36 23° 10° (N) 12:19:16 145.825
AO-7 05 Mar 12:35:01 12:36:51 11° 39° (NE) 12:39:06 29.400- 29.500
CUBEBUG 1 05 Mar 12:39:02 12:42:46 26° 292° (WNW) 12:46:23 437.445
AISAT 05 Mar 12:47:39 12:49:17 12° 300° (WNW) 12:50:43 437.250
TISAT 1 05 Mar 12:52:08 12:56:23 75° 285° (WNW) 13:00:33 437.305
ITUPSAT 1 05 Mar 12:53:18 12:56:32 18° 90° (E) 12:59:55 437.325
SPROUT 05 Mar 12:58:57 13:03:11 56° 287° (WNW) 13:07:22 437.525
ESTCUBE 1 05 Mar 13:22:54 13:24:15 11° 300° (WNW) 13:25:22 437.505/2401.250
Gurwin Techsat 1B 05 Mar 13:36:40 13:41:52 60° 72° (ENE) 13:47:08 435.225
Oscar 19 05 Mar 13:42:36 13:47:14 33° 264° (W) 13:51:49 437.125/150
ITAMSAT 1 05 Mar 13:46:44 13:51:58 84° 255° (WSW) 13:57:16 435.822/435.867
ISS 05 Mar 13:50:11 13:53:24 71° 30° (NNE) 13:56:36 145.825
SWISSCUBE 05 Mar 13:52:35 13:57:26 76° 104° (ESE) 14:02:14 437.505
BEESAT 05 Mar 14:00:38 14:05:28 83° 102° (ESE) 14:10:17 436.000
AO-7 05 Mar 14:19:59 14:27:37 43° 61° (ENE) 14:35:20 29.400- 29.500
HORYU 2 05 Mar 14:27:03 14:31:18 47° 71° (ENE) 14:35:35 437.375
ITUPSAT 1 05 Mar 14:30:06 14:34:49 53° 288° (WNW) 14:39:30 437.325
YUBILEINY 05 Mar 14:36:14 14:42:33 24° 81° (E) 14:49:15 435.215
STARS 05 Mar 14:58:57 15:03:08 43° 99° (E) 15:07:19 437.465
KKS-1 05 Mar 14:59:35 15:04:01 69° 101° (E) 15:08:27 437.445
JAS-2 05 Mar 15:10:57 15:16:15 44° 67° (ENE) 15:22:16 435.910
Gurwin Techsat 1B 05 Mar 15:18:36 15:22:21 19° 270° (W) 15:25:55 435.225
ISS 05 Mar 15:27:24 15:29:27 16° 226° (SW) 15:31:27 145.825
ITAMSAT 1 05 Mar 15:31:13 15:32:25 10° 275° (W) 15:33:15 435.822/435.867
SWISSCUBE 05 Mar 15:32:05 15:34:45 14° 299° (WNW) 15:37:13 437.505
BEESAT 05 Mar 15:40:25 15:42:44 13° 300° (WNW) 15:44:50 436.000
BEESAT 3 05 Mar 15:42:11 15:44:46 17° 112° (ESE) 15:47:30 437.485
Cubesat XI-IV 05 Mar 16:01:25 16:03:51 14° 58° (ENE) 16:06:33 437.490
HORYU 2 05 Mar 16:05:16 16:08:17 17° 269° (W) 16:11:10 437.375
CUTE-I 05 Mar 16:08:50 16:11:48 16° 59° (ENE) 16:14:59 437.470
BEESAT 2 05 Mar 16:10:13 16:13:43 28° 115° (ESE) 16:17:19 435.950
AO-7 05 Mar 16:12:21 16:20:23 48° 260° (W) 16:28:21 29.400- 29.500
AUBIESAT-1 05 Mar 16:23:29 16:27:10 26° 100° (E) 16:31:06 437.475
M-CUBED/EXP-1 PRIME 05 Mar 16:24:07 16:27:57 30° 102° (ESE) 16:32:02 437.505
AIST 2 05 Mar 16:26:16 16:28:52 16° 111° (ESE) 16:31:39 435.215
YUBILEINY 05 Mar 16:29:48 16:38:33 77° 281° (W) 16:47:24 435.215
AIST 1 05 Mar 16:33:14 16:33:49 10° 63° (ENE) 16:34:38
MOZHAYETS 4 05 Mar 16:33:23 16:37:40 36° 96° (E) 16:41:58
STARS 05 Mar 16:36:08 16:39:22 20° 295° (WNW) 16:42:27 437.465
KKS-1 05 Mar 16:37:52 16:40:11 14° 298° (WNW) 16:42:19 437.445
O/OREOS (USA 219) 05 Mar 16:50:33 16:51:32 11° 44° (NE) 16:52:43 437.305
JAS-2 05 Mar 16:56:43 17:01:39 30° 269° (W) 17:06:59 435.910
VERMONT LUNAR 05 Mar 16:57:09 17:00:15 30° 163° (SSE) 17:03:22 437.305
BEESAT 3 05 Mar 17:18:29 17:22:30 52° 309° (NW) 17:26:35 437.485
PHONESAT 2.4 05 Mar 17:23:53 17:27:00 27° 160° (SSE) 17:30:09 2401.200-2431.200
Cubesat XI-IV 05 Mar 17:37:51 17:43:14 85° 77° (ENE) 17:48:40 437.490
CUTE-I 05 Mar 17:45:53 17:51:16 83° 256° (WSW) 17:56:42 437.470
BEESAT 2 05 Mar 17:48:03 17:51:50 33° 313° (NW) 17:55:38 435.950
AUBIESAT-1 05 Mar 17:58:07 18:02:02 34° 295° (WNW) 18:06:11 437.475
M-CUBED/EXP-1 PRIME 05 Mar 17:59:02 18:02:50 31° 295° (WNW) 18:06:50 437.505
AIST 2 05 Mar 18:02:54 18:07:06 57° 308° (NW) 18:11:21 435.215
HO-68 05 Mar 18:03:14 18:06:49 15° 50° (NE) 18:10:43 435.675
PRISM 05 Mar 18:04:30 18:07:53 23° 94° (E) 18:11:19 437.425
AIST 1 05 Mar 18:07:48 18:12:14 82° 263° (W) 18:16:37
MOZHAYETS 4 05 Mar 18:10:56 18:14:46 25° 293° (WNW) 18:18:32
O/OREOS (USA 219) 05 Mar 18:27:18 18:31:56 72° 65° (ENE) 18:36:29 437.305
STRAND 1 05 Mar 18:27:25 18:31:43 27° 94° (E) 18:36:03 437.568
YUBILEINY 05 Mar 18:31:38 18:37:16 17° 305° (NW) 18:42:30 435.215
VERMONT LUNAR 05 Mar 18:34:27 18:37:49 48° 180° (S) 18:41:12 437.305
GOMX 1 05 Mar 18:36:14 18:38:21 13° 61° (ENE) 18:40:39 467.674
CUBESAT XI-V 05 Mar 18:41:16 18:45:57 61° 101° (E) 18:50:35 437.345
BRITE-PL 05 Mar 18:45:43 18:49:58 24° 66° (ENE) 18:54:09 437.365/2234.400
DOVE 4 05 Mar 18:55:35 18:57:38 13° 62° (ENE) 18:59:53 437.250
CUTE 1.7 + AOD 2 05 Mar 18:57:22 18:59:23 14° 63° (ENE) 19:01:33 437.475
BEESAT 3 05 Mar 19:00:58 19:01:36 10° 330° (NNW) 19:02:07 437.485
PHONESAT 2.4 05 Mar 19:01:34 19:05:06 49° 177° (S) 19:08:38 2401.200-2431.200
Cubesat XI-IV 05 Mar 19:21:37 19:24:10 13° 274° (W) 19:26:24 437.490
PCSat 05 Mar 19:22:06 19:26:39 29° 110° (ESE) 19:31:19 145.827
AAUSAT CUBESAT 2 05 Mar 19:28:06 19:30:44 17° 65° (ENE) 19:33:31 437.432
CUTE-I 05 Mar 19:30:50 19:32:18 11° 275° (W) 19:33:25 437.470
COMPASS 1 05 Mar 19:32:47 19:35:55 22° 67° (ENE) 19:39:09 437.405
PRISM 05 Mar 19:39:38 19:43:27 32° 291° (WNW) 19:47:13 437.425
AIST 2 05 Mar 19:45:12 19:46:42 11° 329° (NNW) 19:48:04 435.215
Oscar 11 05 Mar 19:45:24 19:47:32 14° 63° (ENE) 19:49:52 145.826/435.025
HO-68 05 Mar 19:46:20 19:53:23 68° 70° (ENE) 20:00:31 435.675
SEEDS 05 Mar 20:04:03 20:08:07 56° 74° (ENE) 20:12:15 437.485
STRAND 1 05 Mar 20:06:15 20:11:04 40° 291° (WNW) 20:15:49 437.568
O/OREOS (USA 219) 05 Mar 20:08:54 20:10:48 12° 261° (W) 20:12:28 437.305
GOMX 1 05 Mar 20:10:34 20:15:55 87° 77° (ENE) 20:20:58 467.674
VERMONT LUNAR 05 Mar 20:12:17 20:15:25 31° 196° (SSW) 20:18:33 437.305
CANX-2 05 Mar 20:12:31 20:16:44 90° 250° (WSW) 20:20:59 2200.000
CUBEBUG 2 05 Mar 20:13:24 20:16:36 20° 67° (ENE) 20:19:52 437.445
CINEMA 3 05 Mar 20:13:57 20:18:13 36° 71° (ENE) 20:22:22 145.822/145.860
DX 1 05 Mar 20:15:08 20:17:35 15° 63° (ENE) 20:20:13 434.975-435.025
DELFI C3 05 Mar 20:15:35 20:18:33 21° 67° (ENE) 20:21:38 145.870
CUBESAT XI-V 05 Mar 20:19:55 20:22:58 17° 297° (WNW) 20:25:50 437.345
BRITE-PL 05 Mar 20:22:43 20:28:12 53° 261° (W) 20:33:24 437.365/2234.400
DOVE 4 05 Mar 20:29:48 20:34:54 87° 257° (WSW) 20:39:44 437.250
CUTE 1.7 + AOD 2 05 Mar 20:30:41 20:34:51 62° 259° (W) 20:39:03 437.475
AISAT 05 Mar 20:35:26 20:36:25 11° 60° (ENE) 20:37:38 437.250
FUNcube-1 05 Mar 20:35:44 20:39:04 23° 68° (ENE) 20:42:28 145.935
ZACube-1 05 Mar 20:38:06 20:41:34 24° 68° (ENE) 20:45:04 437.345
UKube-1 05 Mar 20:39:12 20:42:42 24° 66° (ENE) 20:46:15 .
PHONESAT 2.4 05 Mar 20:39:53 20:43:17 37° 194° (SSW) 20:46:39 2401.200-2431.200
VELOX 1 05 Mar 20:42:28 20:44:14 12° 61° (ENE) 20:46:13 145.980
GONETS M04 05 Mar 20:44:09 20:51:35 35° 85° (E) 20:59:13
AAUSAT CUBESAT 2 05 Mar 21:02:07 21:06:06 45° 262° (W) 21:10:06 437.432
UWE-3 05 Mar 21:04:01 21:08:18 55° 74° (ENE) 21:12:30 435.000/436.395/437.385
PCSat 05 Mar 21:04:42 21:09:54 45° 308° (NW) 21:15:08 145.827
COMPASS 1 05 Mar 21:07:39 21:11:28 34° 264° (W) 21:15:17 437.405
ESTCUBE 1 05 Mar 21:10:52 21:12:33 12° 61° (ENE) 21:14:26 437.505/2401.250
50 SAT 05 Mar 21:12:16 21:15:09 20° 67° (ENE) 21:18:07 437.505
Oscar 11 05 Mar 21:19:02 21:23:17 63° 259° (W) 21:27:34 145.826/435.025
HO-68 05 Mar 21:36:03 21:41:46 24° 269° (W) 21:47:18 435.675
TIGRISAT 05 Mar 21:40:05 21:40:50 11° 87° (E) 21:41:51 435.000
SEEDS 05 Mar 21:42:14 21:44:23 13° 272° (W) 21:46:20 437.485
CUBEBUG 2 05 Mar 21:48:53 21:53:07 41° 262° (W) 21:57:14 437.445
DX 1 05 Mar 21:49:05 21:53:26 60° 259° (W) 21:57:48 434.975-435.025
HUMSAT D 05 Mar 21:49:38 21:53:49 75° 76° (ENE) 21:57:57 437.325/437.525
DELFI C3 05 Mar 21:49:53 21:53:35 34° 263° (W) 21:57:18 145.870
CINEMA 3 05 Mar 21:51:40 21:55:32 24° 266° (W) 21:59:11 145.822/145.860
VERMONT LUNAR 05 Mar 21:52:08 21:52:42 10° 211° (SSW) 21:53:10 437.305
GOMX 1 05 Mar 21:52:29 21:54:42 12° 274° (W) 21:56:33 467.674
ANTELSAT 05 Mar 21:53:58 21:56:37 16° 90° (E) 21:59:26 437.575/2403.000
CUBEBUG 1 05 Mar 22:00:06 22:04:02 32° 69° (ENE) 22:08:02 437.445
RS-15 05 Mar 22:07:42 22:17:30 42° 110° (ESE) 22:27:36 29.354- 29.394
AISAT 05 Mar 22:07:53 22:12:24 88° 72° (ENE) 22:16:56 437.250
FUNcube-1 05 Mar 22:11:19 22:15:18 34° 263° (W) 22:19:11 145.935
DOVE 4 05 Mar 22:12:43 22:13:23 10° 274° (W) 22:13:41 437.250
TISAT 1 05 Mar 22:13:37 22:14:36 11° 61° (ENE) 22:15:47 437.305
ZACube-1 05 Mar 22:13:57 22:17:52 32° 264° (W) 22:21:41 437.345
CUSAT 1 05 Mar 22:14:42 22:15:36 11° 92° (E) 22:16:49 437.405
UKube-1 05 Mar 22:14:44 22:18:43 34° 263° (W) 22:22:41 .
VELOX 1 05 Mar 22:15:46 22:20:15 79° 256° (WSW) 22:24:47 145.980
PHONESAT 2.4 05 Mar 22:19:13 22:21:10 14° 209° (SSW) 22:23:02 2401.200-2431.200
SPROUT 05 Mar 22:20:37 22:22:52 14° 63° (ENE) 22:25:17 437.525
BUGSAT 1 05 Mar 22:22:54 22:24:35 12° 88° (E) 22:26:27 437.445
QB50P1 05 Mar 22:29:20 22:32:29 21° 92° (E) 22:35:43 145.935-145.965
QB50P2 05 Mar 22:34:14 22:37:38 24° 94° (E) 22:41:05 145.880/145.840
GONETS M04 05 Mar 22:39:39 22:48:08 55° 286° (WNW) 22:56:37
UWE-3 05 Mar 22:42:45 22:45:14 14° 271° (W) 22:47:30 435.000/436.395/437.385
ESTCUBE 1 05 Mar 22:44:18 22:48:50 82° 257° (WSW) 22:53:25 437.505/2401.250
DUCHIFAT 1 05 Mar 22:46:00 22:49:43 30° 96° (E) 22:53:28 145.980
50 SAT 05 Mar 22:46:20 22:49:58 34° 263° (W) 22:53:36 437.505
UNISAT 6 05 Mar 22:50:30 22:54:48 64° 101° (E) 22:59:08 437.425
PCSat 05 Mar 22:53:01 22:54:50 11° 331° (NNW) 22:56:30 145.827
POPSAT HIP 1 05 Mar 23:08:47 23:12:57 55° 100° (E) 23:17:05 437.405
POLYITAN 1 05 Mar 23:10:02 23:14:14 58° 101° (E) 23:18:23 437.675
TIGRISAT 05 Mar 23:13:55 23:18:12 74° 285° (WNW) 23:22:31 435.000
SWISSCUBE 05 Mar 23:25:52 23:28:00 13° 60° (ENE) 23:30:23 437.505
ANTELSAT 05 Mar 23:29:35 23:33:45 48° 288° (WNW) 23:37:57 437.575/2403.000
NANOSAT C BR1 05 Mar 23:30:32 23:34:47 84° 285° (WNW) 23:38:59 145.865
BEESAT 05 Mar 23:33:27 23:35:56 15° 61° (ENE) 23:38:36 436.000
CUBEBUG 1 05 Mar 23:36:40 23:40:27 26° 266° (W) 23:44:10 437.445
DANDE 05 Mar 23:42:57 23:49:16 65° 98° (E) 23:53:56 436.750
TISAT 1 05 Mar 23:45:32 23:49:49 84° 256° (WSW) 23:54:08 437.305
CUSAT 1 05 Mar 23:52:35 23:58:26 84° 280° (W) 00:02:45 437.405
SPROUT 05 Mar 23:54:14 23:58:32 62° 259° (W) 00:02:51 437.525
BUGSAT 1 05 Mar 23:56:27 00:00:33 58° 286° (WNW) 00:04:33 437.445
BEESAT 3 05 Mar 23:59:00 00:02:06 20° 41° (NE) 00:05:15 437.485
ITUPSAT 1 06 Mar 00:01:28 00:05:20 25° 66° (ENE) 00:09:18 437.325
QB50P1 06 Mar 00:04:37 00:08:31 36° 290° (WNW) 00:12:22 145.935-145.965
QB50P2 06 Mar 00:09:50 00:13:37 31° 291° (WNW) 00:17:20 145.880/145.840
RS-15 06 Mar 00:18:45 00:29:32 62° 314° (NW) 00:40:33 29.354- 29.394
DUCHIFAT 1 06 Mar 00:22:00 00:25:29 25° 293° (WNW) 00:28:53 145.980
BEESAT 2 06 Mar 00:28:11 00:31:54 30° 46° (NE) 00:35:34 435.950
UNISAT 6 06 Mar 00:28:55 00:31:10 14° 297° (WNW) 00:33:16 437.425
SO-50 06 Mar 00:35:12 00:39:28 39° 117° (ESE) 00:43:54 436.795
YUBILEINY 06 Mar 00:44:19 00:47:39 13° 50° (NE) 00:51:34 435.215
GONETS M04 06 Mar 00:44:52 00:47:39 11° 312° (NW) 00:49:49
AIST 2 06 Mar 00:45:34 00:48:50 21° 40° (NE) 00:52:08 435.215
POPSAT HIP 1 06 Mar 00:45:57 00:48:27 15° 296° (WNW) 00:50:48 437.405
POLYITAN 1 06 Mar 00:47:23 00:49:45 14° 297° (WNW) 00:51:58 437.675
SWISSCUBE 06 Mar 01:00:30 01:05:17 82° 257° (WSW) 01:10:08 437.505
BEESAT 06 Mar 01:08:29 01:13:15 74° 258° (WSW) 01:18:05 436.000
DANDE 06 Mar 01:28:59 01:32:42 17° 290° (WNW) 01:35:41 436.750
BEESAT 3 06 Mar 01:36:28 01:40:32 53° 240° (WSW) 01:44:29 437.485
ITUPSAT 1 06 Mar 01:38:36 01:43:05 39° 263° (W) 01:47:35 437.325
Oscar 19 06 Mar 01:51:56 01:57:06 79° 102° (ESE) 02:02:15 437.125/150
Gurwin Techsat 1B 06 Mar 01:52:13 01:56:10 21° 91° (E) 02:00:15 435.225
STARS 06 Mar 01:57:13 02:01:27 46° 71° (ENE) 02:05:42 437.465
ITAMSAT 1 06 Mar 01:58:36 02:03:11 31° 95° (E) 02:07:49 435.822/435.867
KKS-1 06 Mar 01:58:58 02:03:26 74° 75° (ENE) 02:07:54 437.445
BEESAT 2 06 Mar 02:06:21 02:10:04 31° 244° (WSW) 02:13:41 435.950
SO-50 06 Mar 02:15:56 02:20:07 31° 317° (NW) 02:24:23 436.795
AIST 2 06 Mar 02:23:36 02:27:48 55° 240° (WSW) 02:31:54 435.215
RS-15 06 Mar 02:35:40 02:44:49 28° 344° (NNW) 02:54:05 29.354- 29.394
YUBILEINY 06 Mar 02:38:17 02:47:00 59° 76° (ENE) 02:55:42 435.215
AUBIESAT-1 06 Mar 03:14:07 03:17:11 34° 65° (ENE) 03:20:28 437.475
M-CUBED/EXP-1 PRIME 06 Mar 03:15:14 03:18:23 40° 66° (ENE) 03:21:45 437.505
Gurwin Techsat 1B 06 Mar 03:31:20 03:36:31 52° 289° (WNW) 03:41:39 435.225
Oscar 19 06 Mar 03:32:54 03:35:53 15° 300° (WNW) 03:38:40 437.125/150
STARS 06 Mar 03:35:08 03:38:13 18° 269° (W) 03:41:10 437.465
MOZHAYETS 4 06 Mar 03:36:44 03:40:59 40° 70° (ENE) 03:45:17
ITAMSAT 1 06 Mar 03:38:00 03:42:45 36° 293° (WNW) 03:47:26 435.822/435.867
KKS-1 06 Mar 03:39:09 03:40:42 11° 273° (W) 03:41:59 437.445
HORYU 2 06 Mar 03:53:19 03:57:48 81° 103° (ESE) 04:02:15 437.375
JAS-2 06 Mar 04:01:56 04:09:00 42° 95° (E) 04:16:24 435.910
PCSat 06 Mar 04:07:52 04:12:48 34° 48° (NE) 04:17:45 145.827
AO-7 06 Mar 04:11:47 04:19:54 55° 102° (ESE) 04:28:00 29.400- 29.500
YUBILEINY 06 Mar 04:35:48 04:43:25 33° 276° (W) 04:50:48 435.215
